�N����,����,�~����,�C��,���x,�C��,����,���ϕ���,�ő�u�ԕ���,�ő厞����,���˗�,�I�_���x,�n�����x,�ő啗���N��,DTYPE
"18/10/03","00:10",0.0,15.7,84.7,1012.8,300.0,1.7,3.3,332.4,0.00,13.2,20.3,"00:07:44",1
"18/10/03","00:20",0.0,15.9,83.4,1012.8,330.9,1.6,3.2,346.1,0.00,13.1,20.2,"00:13:36",1
"18/10/03","00:30",0.0,15.8,83.9,1012.8,336.9,1.5,2.4,338.0,0.00,13.1,20.2,"00:23:52",1
"18/10/03","00:40",0.0,15.7,84.7,1013.0,333.0,1.5,2.9,338.5,0.00,13.2,20.2,"00:38:56",1
"18/10/03","00:50",0.0,15.7,84.1,1012.8,331.0,2.2,3.5,337.3,0.00,13.1,20.2,"00:48:00",1
"18/10/03","01:00",0.0,15.9,83.3,1013.0,331.4,2.1,3.6,331.9,0.00,13.1,20.0,"00:53:44",1
"18/10/03","01:10",0.0,16.0,82.2,1013.0,322.4,2.7,4.1,319.8,0.00,13.0,19.9,"01:04:48",1
"18/10/03","01:20",0.0,16.0,81.9,1012.8,328.8,2.7,4.2,331.4,0.00,13.0,20.0,"01:15:12",1
"18/10/03","01:30",0.0,15.7,83.3,1013.3,333.2,2.3,3.9,334.0,0.00,12.9,19.9,"01:21:52",1
"18/10/03","01:40",0.0,15.5,84.5,1013.0,334.6,2.2,3.7,332.9,0.00,12.9,20.0,"01:33:20",1
"18/10/03","01:50",0.0,15.8,86.0,1013.3,337.0,2.3,3.7,337.3,0.00,13.5,19.9,"01:42:24",1
"18/10/03","02:00",0.0,15.9,86.3,1013.3,332.6,2.8,5.5,342.8,0.00,13.7,19.7,"01:57:36",1
"18/10/03","02:10",0.0,15.7,86.3,1013.5,328.7,2.6,4.8,344.6,0.00,13.5,19.8,"02:04:24",1
"18/10/03","02:20",0.0,15.4,85.9,1013.3,327.3,2.2,3.5,339.6,0.00,13.1,19.7,"02:10:24",1
"18/10/03","02:30",0.0,15.2,85.5,1013.3,334.6,2.0,3.5,341.9,0.00,12.8,19.8,"02:22:16",1
"18/10/03","02:40",0.0,15.1,85.4,1013.5,338.0,1.2,2.6,339.8,0.00,12.7,19.7,"02:31:04",1
"18/10/03","02:50",0.0,14.9,86.2,1013.5,334.0,1.3,2.1,340.3,0.00,12.7,19.6,"02:47:04",1
"18/10/03","03:00",0.0,15.0,86.9,1013.5,329.6,1.5,2.6,337.2,0.00,12.9,19.6,"02:55:36",1
"18/10/03","03:10",0.0,15.0,87.4,1013.0,331.1,1.6,2.9,318.2,0.00,13.0,19.6,"03:03:04",1
"18/10/03","03:20",0.0,15.2,88.6,1013.3,332.1,2.0,3.5,336.9,0.00,13.4,19.6,"03:18:32",1
"18/10/03","03:30",0.0,15.3,87.4,1013.0,325.3,2.2,4.5,337.1,0.00,13.3,19.4,"03:21:52",1
"18/10/03","03:40",0.0,15.2,87.9,1013.0,328.8,2.0,3.6,333.6,0.00,13.2,19.4,"03:36:24",1
"18/10/03","03:50",0.0,15.4,87.4,1013.3,331.4,2.5,4.9,340.4,0.00,13.4,19.5,"03:45:44",1
"18/10/03","04:00",0.0,15.2,87.2,1013.3,337.8,2.1,4.4,337.6,0.00,13.1,19.6,"03:52:56",1
"18/10/03","04:10",0.0,15.1,87.6,1013.5,338.9,1.7,3.2,337.6,0.00,13.1,19.5,"04:04:08",1
"18/10/03","04:20",0.0,15.0,87.5,1013.5,335.1,1.8,3.6,330.0,0.00,13.0,19.4,"04:15:28",1
"18/10/03","04:30",0.0,14.9,88.0,1013.5,329.0,2.0,3.2,338.9,0.00,13.0,19.5,"04:23:36",1
"18/10/03","04:40",0.0,15.1,88.7,1013.5,325.7,2.0,4.0,345.0,0.00,13.3,19.5,"04:37:36",1
"18/10/03","04:50",0.0,15.0,89.2,1013.5,331.3,2.1,3.2,337.7,0.00,13.3,19.4,"04:42:56",1
"18/10/03","05:00",0.0,15.0,89.3,1013.8,318.9,1.7,3.2,343.3,0.00,13.3,19.5,"04:50:16",1
"18/10/03","05:10",0.0,14.8,89.6,1013.8,328.8,2.2,3.7,329.5,0.00,13.1,19.4,"05:09:54",1
"18/10/03","05:20",0.0,14.9,89.8,1014.2,330.1,2.6,4.4,333.7,0.00,13.3,19.4,"05:12:32",1
"18/10/03","05:30",0.0,14.9,89.9,1013.8,327.3,2.6,4.3,346.1,0.00,13.3,19.3,"05:29:52",1
"18/10/03","05:40",0.0,14.9,90.1,1014.2,329.7,3.1,4.9,329.9,0.00,13.3,19.3,"05:38:32",1
"18/10/03","05:50",0.0,14.9,90.0,1014.0,329.6,2.8,5.2,341.8,0.00,13.3,19.3,"05:48:48",1
"18/10/03","06:00",0.0,14.9,90.2,1013.8,331.6,3.0,5.8,324.6,0.00,13.3,19.3,"05:53:44",1
"18/10/03","06:10",0.0,14.9,90.1,1014.2,333.2,3.4,4.9,334.0,0.00,13.3,19.3,"06:03:36",1
"18/10/03","06:20",0.0,14.9,90.1,1014.7,332.7,2.8,5.4,331.2,0.00,13.3,19.2,"06:12:26",1
"18/10/03","06:30",0.0,14.9,90.1,1014.5,334.2,2.7,4.2,344.3,0.00,13.3,19.4,"06:28:48",1
"18/10/03","06:40",0.0,15.0,90.0,1015.4,333.7,2.1,3.7,347.7,0.00,13.4,19.4,"06:30:02",1
"18/10/03","06:50",0.0,15.1,89.4,1015.2,337.2,1.6,4.0,339.7,0.00,13.4,19.1,"06:40:16",1
"18/10/03","07:00",0.0,15.2,89.6,1014.9,333.8,1.5,2.5,353.8,0.01,13.5,19.3,"06:53:04",1
"18/10/03","07:10",0.0,15.7,89.0,1015.4,315.3,1.5,4.1,331.9,0.02,13.9,19.2,"07:06:16",1
"18/10/03","07:20",0.0,16.1,87.6,1015.2,324.2,1.6,3.3,338.6,0.03,14.1,19.2,"07:12:16",1
"18/10/03","07:30",0.0,16.5,86.2,1015.4,334.3,1.3,2.5,345.4,0.05,14.2,19.3,"07:25:28",1
"18/10/03","07:40",0.0,16.9,83.8,1015.6,329.9,1.6,2.6,342.4,0.07,14.2,19.4,"07:34:00",1
"18/10/03","07:50",0.0,17.6,81.6,1015.4,333.4,1.5,3.5,341.7,0.09,14.5,19.2,"07:40:32",1
"18/10/03","08:00",0.0,17.9,79.8,1015.9,326.5,1.3,2.5,340.9,0.11,14.4,19.4,"07:57:28",1
"18/10/03","08:10",0.0,18.2,81.6,1015.6,293.8,1.1,2.5,333.3,0.14,15.0,19.2,"08:02:40",1
"18/10/03","08:20",0.0,18.4,79.0,1015.4,277.4,1.1,2.4,321.8,0.17,14.7,19.4,"08:19:12",1
"18/10/03","08:30",0.0,19.2,78.2,1014.9,269.1,0.7,2.1,316.6,0.19,15.4,19.6,"08:22:16",1
"18/10/03","08:40",0.0,19.7,76.9,1014.9,294.7,1.0,2.2,348.8,0.22,15.6,19.5,"08:36:16",1
"18/10/03","08:50",0.0,19.9,74.6,1014.7,268.7,1.0,2.6,234.3,0.25,15.3,19.8,"08:40:02",1
"18/10/03","09:00",0.0,20.0,75.0,1014.2,257.3,1.1,2.8,216.0,0.27,15.5,19.7,"08:54:56",1
"18/10/03","09:10",0.0,20.5,72.9,1014.7,297.0,1.1,2.7,230.6,0.30,15.5,19.9,"09:00:40",1
"18/10/03","09:20",0.0,21.0,72.0,1014.2,296.6,1.1,2.2,227.5,0.32,15.8,20.1,"09:13:04",1
"18/10/03","09:30",0.0,21.4,70.2,1014.5,322.9,1.1,2.5,349.5,0.34,15.8,19.9,"09:24:16",1
"18/10/03","09:40",0.0,21.6,67.2,1014.5,278.2,0.8,2.4,220.0,0.36,15.3,20.3,"09:32:32",1
"18/10/03","09:50",0.0,21.7,66.1,1014.0,273.3,0.7,1.8,336.9,0.39,15.1,20.6,"09:43:04",1
"18/10/03","10:00",0.0,22.2,66.9,1014.0,144.0,1.0,2.4,230.4,0.39,15.8,20.5,"09:57:44",1
"18/10/03","10:10",0.0,22.3,61.5,1013.8,185.1,1.1,2.0,136.3,0.42,14.6,20.8,"10:03:52",1
"18/10/03","10:20",0.0,23.2,62.3,1013.0,178.6,0.6,1.4,204.9,0.44,15.6,21.1,"10:10:40",1
"18/10/03","10:30",0.0,23.2,60.0,1013.3,170.8,1.1,2.7,198.3,0.45,15.1,21.1,"10:28:40",1
"18/10/03","10:40",0.0,23.3,59.8,1013.3,186.6,1.2,2.9,219.3,0.47,15.1,21.1,"10:33:36",1
"18/10/03","10:50",0.0,24.1,60.2,1013.5,196.4,1.1,2.5,224.6,0.48,15.9,21.4,"10:44:00",1
"18/10/03","11:00",0.0,23.6,55.7,1013.5,164.2,1.3,2.8,147.9,0.49,14.3,21.6,"10:58:00",1
"18/10/03","11:10",0.0,23.9,53.9,1013.5,162.3,1.1,3.3,187.1,0.50,14.0,21.8,"11:09:36",1
"18/10/03","11:20",0.0,24.1,55.7,1013.0,165.1,1.5,2.8,217.5,0.51,14.7,22.0,"11:10:32",1
"18/10/03","11:30",0.0,24.1,53.9,1013.0,170.5,1.0,2.1,159.0,0.51,14.2,22.2,"11:20:16",1
"18/10/03","11:40",0.0,24.3,52.4,1012.8,188.7,0.7,2.2,194.7,0.52,14.0,22.1,"11:34:08",1
"18/10/03","11:50",0.0,24.4,54.8,1013.0,151.5,1.2,3.5,226.3,0.52,14.8,22.5,"11:48:48",1
"18/10/03","12:00",0.0,24.4,53.3,1013.3,220.9,1.5,3.1,231.0,0.52,14.3,22.7,"11:54:48",1
"18/10/03","12:10",0.0,25.0,53.1,1013.3,234.4,1.0,2.4,207.2,0.53,14.8,22.7,"12:07:04",1
"18/10/03","12:20",0.0,24.9,54.8,1013.0,159.0,1.5,3.1,121.6,0.53,15.2,23.0,"12:12:56",1
"18/10/03","12:30",0.0,25.4,54.9,1012.8,161.4,0.8,2.6,140.9,0.53,15.7,23.0,"12:21:04",1
"18/10/03","12:40",0.0,25.5,51.7,1013.0,161.7,0.8,2.6,146.2,0.53,14.9,23.3,"12:34:08",1
"18/10/03","12:50",0.0,25.1,49.9,1013.0,205.1,1.3,3.9,195.3,0.53,14.0,23.5,"12:43:04",1
"18/10/03","13:00",0.0,25.5,51.1,1013.0,349.4,1.0,1.8,347.4,0.52,14.7,23.5,"12:56:16",1
"18/10/03","13:10",0.0,25.9,49.7,1013.0,117.1,1.0,1.9,21.1,0.51,14.6,23.5,"13:03:20",1
"18/10/03","13:20",0.0,25.8,52.3,1013.0,215.4,0.8,1.8,166.9,0.50,15.3,23.6,"13:19:12",1
"18/10/03","13:30",0.0,25.8,51.2,1012.8,317.5,1.2,3.3,344.6,0.50,15.0,23.9,"13:28:56",1
"18/10/03","13:40",0.0,25.8,51.1,1012.6,243.3,1.2,3.5,206.0,0.49,15.0,23.9,"13:34:24",1
"18/10/03","13:50",0.0,25.9,52.2,1012.6,229.7,1.2,2.5,342.0,0.48,15.4,23.9,"13:45:20",1
"18/10/03","14:00",0.0,26.1,52.1,1012.6,199.6,1.1,3.3,198.7,0.46,15.6,24.1,"13:52:48",1
"18/10/03","14:10",0.0,25.6,54.4,1012.6,177.1,1.6,3.5,191.9,0.36,15.8,24.0,"14:02:48",1
"18/10/03","14:20",0.0,26.3,50.5,1011.9,208.9,2.0,4.2,216.4,0.44,15.3,24.2,"14:16:00",1
"18/10/03","14:30",0.0,26.1,50.7,1012.1,217.6,2.1,4.1,211.9,0.41,15.1,24.2,"14:26:00",1
"18/10/03","14:40",0.0,26.4,51.7,1012.1,275.5,1.5,2.6,343.8,0.39,15.7,24.0,"14:37:36",1
"18/10/03","14:50",0.0,26.3,50.2,1012.1,325.7,1.2,3.5,350.3,0.31,15.2,24.4,"14:44:32",1
"18/10/03","15:00",0.0,26.2,51.4,1011.9,276.2,1.1,3.3,227.9,0.29,15.4,24.3,"14:54:00",1
"18/10/03","15:10",0.0,26.3,50.7,1011.6,306.5,1.2,3.2,310.7,0.28,15.3,24.2,"15:04:00",1
"18/10/03","15:20",0.0,26.1,52.1,1011.6,309.4,1.0,1.8,317.6,0.27,15.6,24.3,"15:10:08",1
"18/10/03","15:30",0.0,25.0,58.1,1011.9,73.7,1.0,2.1,122.9,0.11,16.2,24.0,"15:26:32",1
"18/10/03","15:40",0.0,25.5,52.9,1011.2,339.0,1.5,3.4,355.5,0.08,15.2,24.1,"15:30:40",1
"18/10/03","15:50",0.0,25.1,53.9,1011.6,341.2,1.7,3.2,347.7,0.05,15.2,24.0,"15:40:08",1
"18/10/03","16:00",0.0,24.4,57.3,1011.9,339.1,2.1,3.7,321.7,0.04,15.5,24.1,"15:50:56",1
"18/10/03","16:10",0.0,24.1,57.5,1011.9,343.6,2.0,3.7,348.2,0.04,15.2,24.0,"16:04:00",1
"18/10/03","16:20",0.0,23.9,60.0,1012.1,340.3,1.5,2.7,352.5,0.03,15.7,24.0,"16:19:20",1
"18/10/03","16:30",0.0,23.6,57.6,1012.1,340.9,1.7,3.9,309.1,0.02,14.8,23.8,"16:27:20",1
"18/10/03","16:40",0.0,23.5,57.3,1012.6,342.7,2.1,4.0,338.5,0.01,14.6,23.5,"16:31:36",1
"18/10/03","16:50",0.0,23.3,57.3,1012.8,344.8,1.5,2.9,334.6,0.01,14.4,23.5,"16:42:08",1
"18/10/03","17:00",0.0,23.1,55.4,1013.0,346.6,1.5,3.7,338.1,0.01,13.7,23.4,"16:59:04",1
"18/10/03","17:10",0.0,22.9,56.7,1013.0,339.2,1.7,4.0,341.0,0.01,13.9,23.4,"17:08:00",1
"18/10/03","17:20",0.0,22.7,56.8,1013.3,338.9,1.8,5.1,331.8,0.01,13.7,23.2,"17:17:36",1
"18/10/03","17:30",0.0,22.5,57.1,1013.5,342.0,2.1,4.4,349.9,0.00,13.6,23.2,"17:26:08",1
"18/10/03","17:40",0.0,22.3,58.9,1013.5,334.0,2.2,4.1,334.8,0.00,13.9,23.0,"17:32:40",1
"18/10/03","17:50",0.0,22.1,59.4,1013.8,341.4,2.0,4.0,331.7,0.00,13.9,22.9,"17:43:28",1
"18/10/03","18:00",0.0,21.8,59.7,1013.5,340.8,2.2,4.8,332.2,0.00,13.7,23.0,"17:50:48",1
"18/10/03","18:10",0.0,21.8,59.9,1014.2,349.3,1.6,4.5,297.7,0.00,13.7,22.8,"18:02:00",1
"18/10/03","18:20",0.0,21.4,61.2,1014.2,331.8,1.2,2.9,324.2,0.00,13.7,22.7,"18:18:08",1
"18/10/03","18:30",0.0,21.1,62.7,1014.2,320.7,1.0,4.1,333.2,0.00,13.8,22.5,"18:29:36",1
"18/10/03","18:40",0.0,21.1,63.1,1014.0,325.5,2.0,4.8,357.8,0.00,13.9,22.7,"18:36:16",1
"18/10/03","18:50",0.0,21.1,63.1,1014.5,326.5,2.1,4.2,332.0,0.00,13.9,22.4,"18:43:12",1
"18/10/03","19:00",0.0,20.8,64.0,1014.7,278.7,0.7,3.4,345.0,0.00,13.8,22.5,"18:51:52",1
"18/10/03","19:10",0.0,20.7,63.4,1014.9,300.8,1.1,2.5,328.3,0.00,13.5,22.3,"19:02:56",1
"18/10/03","19:20",0.0,20.7,63.2,1014.7,309.0,1.5,2.9,349.8,0.00,13.5,22.2,"19:10:40",1
"18/10/03","19:30",0.0,20.5,63.3,1014.9,319.3,1.0,2.0,10.1,0.00,13.3,22.0,"19:26:56",1
"18/10/03","19:40",0.0,20.2,64.4,1015.4,315.2,1.5,2.8,321.5,0.00,13.3,22.2,"19:39:04",1
"18/10/03","19:50",0.0,20.4,63.1,1014.9,326.4,2.2,3.5,342.4,0.00,13.2,22.0,"19:49:52",1
"18/10/03","20:00",0.0,20.2,63.7,1015.2,336.3,2.1,3.6,322.7,0.00,13.1,21.8,"19:51:36",1
"18/10/03","20:10",0.0,20.2,63.4,1015.4,336.7,1.7,3.3,316.3,0.00,13.1,21.8,"20:04:00",1
"18/10/03","20:20",0.0,19.8,66.0,1015.4,311.0,1.1,2.0,348.5,0.00,13.3,22.0,"20:10:40",1
"18/10/03","20:30",0.0,19.2,68.6,1015.9,294.5,0.7,1.3,302.3,0.00,13.3,21.7,"20:22:08",1
"18/10/03","20:40",0.0,18.5,72.6,1015.6,267.7,0.6,2.0,317.7,0.00,13.5,21.7,"20:30:02",1
"18/10/03","20:50",0.0,17.9,77.5,1015.4,309.1,0.8,1.8,325.5,0.00,14.0,21.7,"20:40:08",1
"18/10/03","21:00",0.0,17.4,80.2,1015.6,293.4,0.8,1.2,307.8,0.00,14.0,21.6,"20:53:20",1
"18/10/03","21:10",0.0,17.5,80.1,1015.6,299.0,0.7,1.6,333.7,0.00,14.1,21.3,"21:06:24",1
"18/10/03","21:20",0.0,17.2,80.5,1015.6,290.3,0.7,1.7,335.2,0.00,13.9,21.4,"21:18:48",1
"18/10/03","21:30",0.0,17.4,80.3,1015.6,321.7,1.5,2.0,324.5,0.00,14.0,21.1,"21:29:28",1
"18/10/03","21:40",0.0,17.3,81.6,1015.6,319.8,1.5,2.5,320.1,0.00,14.2,21.5,"21:30:48",1
"18/10/03","21:50",0.0,17.3,81.7,1015.4,326.6,1.5,2.0,330.4,0.00,14.2,21.3,"21:45:20",1
"18/10/03","22:00",0.0,17.4,81.3,1015.6,325.8,1.5,2.0,323.8,0.00,14.2,21.2,"21:56:24",1
"18/10/03","22:10",0.0,17.4,80.7,1015.9,315.2,1.2,2.1,318.5,0.00,14.1,21.0,"22:01:36",1
"18/10/03","22:20",0.0,17.3,80.3,1015.6,299.3,1.2,1.7,319.1,0.00,13.9,21.1,"22:14:48",1
"18/10/03","22:30",0.0,17.2,80.7,1015.6,316.7,1.5,1.9,312.4,0.00,13.9,20.9,"22:24:40",1
"18/10/03","22:40",0.0,17.1,82.5,1016.4,328.7,1.5,2.2,332.1,0.00,14.1,21.0,"22:35:28",1
"18/10/03","22:50",0.0,17.0,82.7,1016.4,328.9,1.3,2.2,330.5,0.00,14.1,20.8,"22:42:00",1
"18/10/03","23:00",0.0,17.1,82.6,1016.1,322.5,1.6,2.8,328.1,0.00,14.2,20.9,"22:56:08",1
"18/10/03","23:10",0.0,17.1,81.9,1016.4,329.8,1.6,2.5,333.4,0.00,14.0,20.6,"23:09:36",1
"18/10/03","23:20",0.0,16.9,82.3,1016.4,331.0,1.7,2.6,328.8,0.00,13.9,20.6,"23:12:00",1
"18/10/03","23:30",0.0,16.6,82.8,1016.6,321.0,1.6,2.7,340.2,0.00,13.7,20.7,"23:22:00",1
"18/10/03","23:40",0.0,16.3,83.9,1016.6,313.3,1.3,2.2,317.3,0.00,13.6,20.6,"23:34:32",1
"18/10/03","23:50",0.0,16.3,85.3,1016.8,328.2,1.7,2.2,322.0,0.00,13.9,20.6,"23:48:24",1
"18/10/03","24:00",0.0,16.3,85.4,1016.8,331.5,1.7,2.5,338.0,0.00,13.9,20.6,"23:57:44",1
